TimeEST,TemperatureF,Dew PointF,Humidity,Sea Level PressureIn,VisibilityMPH,Wind Direction,Wind SpeedMPH,Gust SpeedMPH,PrecipitationIn,Events,Conditions,WindDirDegrees,DateUTC
12:15 AM,18.5,13.1,79,29.94,10.0,ENE,10.4,-,N/A,,Clear,60,2013-12-22 05:15:00
12:35 AM,18.9,12.9,78,29.94,10.0,ENE,9.2,-,N/A,,Clear,60,2013-12-22 05:35:00
12:55 AM,19.0,12.9,77,29.91,10.0,NE,9.2,-,N/A,,Clear,50,2013-12-22 05:55:00
1:15 AM,18.9,13.1,78,29.90,10.0,NE,9.2,-,N/A,,Clear,50,2013-12-22 06:15:00
1:35 AM,19.0,12.4,75,29.91,10.0,NE,12.7,-,N/A,,Clear,50,2013-12-22 06:35:00
1:55 AM,19.2,11.8,73,29.90,10.0,NE,9.2,19.6,N/A,,Clear,40,2013-12-22 06:55:00
2:15 AM,19.0,11.7,73,29.91,10.0,NE,13.8,17.3,N/A,,Clear,40,2013-12-22 07:15:00
2:35 AM,19.0,11.8,74,29.91,10.0,NE,11.5,-,N/A,,Clear,40,2013-12-22 07:35:00
2:56 AM,19.2,11.8,73,29.91,10.0,NE,12.7,19.6,N/A,,Clear,50,2013-12-22 07:56:00
3:15 AM,19.4,12.0,73,29.93,10.0,NE,9.2,-,N/A,,Clear,40,2013-12-22 08:15:00
3:35 AM,19.2,13.1,77,29.94,10.0,NNE,10.4,-,N/A,,Clear,30,2013-12-22 08:35:00
3:55 AM,19.2,13.5,78,29.92,10.0,NE,8.1,-,N/A,,Clear,40,2013-12-22 08:55:00
4:15 AM,19.0,13.6,79,29.92,10.0,NE,8.1,-,N/A,,Clear,40,2013-12-22 09:15:00
4:35 AM,19.0,13.1,78,29.90,10.0,NE,10.4,16.1,N/A,,Clear,50,2013-12-22 09:35:00
4:55 AM,19.2,12.2,74,29.87,10.0,NE,13.8,20.7,N/A,,Clear,40,2013-12-22 09:55:00
5:15 AM,18.5,13.3,80,29.86,10.0,North,-9999.0,-,N/A,,Clear,0,2013-12-22 10:15:00
5:35 AM,18.3,13.3,81,29.87,10.0,NNE,10.4,-,N/A,,Clear,30,2013-12-22 10:35:00
5:55 AM,18.5,13.3,80,29.88,10.0,NNE,11.5,-,N/A,,Clear,30,2013-12-22 10:55:00
6:15 AM,18.1,13.1,81,29.87,10.0,NNE,13.8,-,N/A,,Scattered Clouds,30,2013-12-22 11:15:00
6:35 AM,17.8,12.6,80,29.88,10.0,NE,12.7,-,N/A,,Clear,40,2013-12-22 11:35:00
6:55 AM,18.0,12.0,78,29.89,10.0,NNE,13.8,21.9,N/A,,Clear,20,2013-12-22 11:55:00
7:15 AM,18.0,11.8,77,29.90,10.0,NNE,13.8,20.7,N/A,,Mostly Cloudy,30,2013-12-22 12:15:00
7:36 AM,17.6,12.4,80,29.90,10.0,NE,10.4,18.4,N/A,,Mostly Cloudy,40,2013-12-22 12:36:00
7:55 AM,17.4,12.2,80,29.91,10.0,NNE,10.4,-,N/A,,Overcast,20,2013-12-22 12:55:00
8:15 AM,16.9,12.2,82,29.90,10.0,NNE,13.8,-,N/A,,Overcast,30,2013-12-22 13:15:00
8:35 AM,16.7,11.7,81,29.90,10.0,NNE,11.5,17.3,N/A,,Overcast,30,2013-12-22 13:35:00
8:55 AM,16.5,11.3,80,29.89,10.0,NNE,15.0,18.4,N/A,,Overcast,30,2013-12-22 13:55:00
9:15 AM,16.2,10.9,80,29.89,10.0,NE,11.5,16.1,N/A,,Overcast,40,2013-12-22 14:15:00
9:35 AM,15.8,10.4,79,29.89,10.0,NNE,17.3,23.0,N/A,,Overcast,30,2013-12-22 14:35:00
9:55 AM,15.6,10.4,80,29.90,7.0,NNE,13.8,-,N/A,Snow,Light Snow,30,2013-12-22 14:55:00
10:15 AM,15.3,10.2,80,29.89,4.0,NNE,15.0,18.4,N/A,Snow,Light Snow,30,2013-12-22 15:15:00
10:35 AM,14.9,10.2,82,29.89,2.0,NNE,12.7,21.9,N/A,Snow,Light Snow,30,2013-12-22 15:35:00
10:55 AM,14.7,10.6,84,29.90,2.5,NNE,11.5,18.4,N/A,Snow,Light Snow,20,2013-12-22 15:55:00
11:15 AM,14.7,11.1,86,29.91,1.2,NNE,11.5,17.3,N/A,Snow,Light Snow,30,2013-12-22 16:15:00
11:36 AM,14.5,11.3,87,29.91,1.0,NNE,11.5,18.4,N/A,Snow,Light Snow,20,2013-12-22 16:36:00
11:55 AM,14.4,11.5,88,29.91,0.8,NNE,10.4,-,N/A,Snow,Light Snow,20,2013-12-22 16:55:00
12:15 PM,14.0,11.1,88,29.91,0.5,North,10.4,-,N/A,Snow,Light Snow,10,2013-12-22 17:15:00
12:27 PM,14.0,10.9,88,29.91,1.2,NNE,10.4,17.3,N/A,Snow,Light Snow,20,2013-12-22 17:27:00
4:06 PM,14.7,11.3,86,29.92,10.0,NNE,8.1,-,N/A,,Overcast,20,2013-12-22 21:06:00
4:15 PM,14.7,11.1,86,29.92,10.0,NNE,8.1,-,N/A,,Overcast,20,2013-12-22 21:15:00
4:35 PM,14.9,11.7,87,29.94,10.0,NNE,5.8,-,N/A,,Overcast,30,2013-12-22 21:35:00
4:55 PM,14.9,11.8,88,29.95,7.0,NNE,5.8,-,N/A,Snow,Light Snow,20,2013-12-22 21:55:00
5:15 PM,14.7,11.8,88,29.96,7.0,NNE,4.6,-,N/A,Snow,Light Snow,20,2013-12-22 22:15:00
5:35 PM,14.7,12.2,90,29.96,1.8,North,4.6,-,N/A,Snow,Light Snow,360,2013-12-22 22:35:00
5:55 PM,14.5,12.0,90,29.97,1.5,North,5.8,-,N/A,Snow,Light Snow,360,2013-12-22 22:55:00
6:15 PM,14.0,11.8,91,29.97,1.8,North,8.1,-,N/A,Snow,Light Snow,10,2013-12-22 23:15:00
6:35 PM,14.0,11.5,90,29.99,2.0,North,5.8,-,N/A,Snow,Light Snow,10,2013-12-22 23:35:00
6:56 PM,14.0,11.8,91,30.00,2.5,NNE,4.6,-,N/A,Snow,Light Snow,30,2013-12-22 23:56:00
7:15 PM,12.9,9.7,87,30.01,5.0,NNE,9.2,-,N/A,Snow,Light Snow,20,2013-12-23 00:15:00
7:34 PM,12.6,9.3,87,30.01,5.0,NE,9.2,-,N/A,Snow,Light Snow,40,2013-12-23 00:34:00
7:55 PM,12.2,9.5,89,30.02,5.0,NNE,6.9,-,N/A,Snow,Light Snow,20,2013-12-23 00:55:00
8:15 PM,12.0,9.1,88,30.02,3.0,NNE,9.2,-,N/A,Snow,Light Snow,20,2013-12-23 01:15:00
8:35 PM,11.7,8.6,88,30.03,3.0,NNE,8.1,-,N/A,Snow,Light Snow,20,2013-12-23 01:35:00
8:55 PM,11.3,8.1,87,30.02,4.0,North,9.2,-,N/A,Snow,Light Snow,10,2013-12-23 01:55:00
9:16 PM,10.9,7.7,87,30.03,5.0,North,6.9,-,N/A,Snow,Light Snow,360,2013-12-23 02:16:00
9:35 PM,10.4,7.3,87,30.02,10.0,North,9.2,-,N/A,Snow,Light Snow,10,2013-12-23 02:35:00
9:55 PM,10.2,7.0,87,30.02,2.5,NNE,10.4,16.1,N/A,Snow,Light Snow,20,2013-12-23 02:55:00
10:15 PM,10.2,6.8,86,30.02,7.0,NNE,10.4,-,N/A,,Overcast,20,2013-12-23 03:15:00
10:35 PM,10.0,6.4,85,30.03,10.0,NNE,9.2,-,N/A,,Overcast,30,2013-12-23 03:35:00
10:55 PM,9.9,6.4,86,30.03,10.0,NNE,6.9,-,N/A,,Overcast,30,2013-12-23 03:55:00
11:15 PM,9.5,6.4,87,30.03,5.0,NNE,8.1,-,N/A,Snow,Light Snow,30,2013-12-23 04:15:00
11:35 PM,9.3,5.9,86,30.04,5.0,NNE,9.2,-,N/A,Snow,Light Snow,30,2013-12-23 04:35:00
11:56 PM,9.1,5.9,87,30.04,5.0,NE,6.9,-,N/A,Snow,Light Snow,40,2013-12-23 04:56:00